#timestamp,LO_Frequency,Hit,StdDev 
1627146015.4,286047002.4,N
1627146035.2,286047002.3,N
1627146055.1,286047000.2,N
1627146056.0,286047000.2,N
1627146075.8,286047001.1,N
1627146095.7,286047000.0,N
1627146115.5,286046998.1,N
1627146135.3,286046998.6,N
1627146155.2,286047000.3,N
1627146175.9,286046999.9,N
1627146195.7,286047002.2,N
1627146215.6,286047000.3,N
1627146235.4,286047000.0,N
1627146255.2,286047002.7,N
1627146275.1,286046999.7,N
1627146276.0,286046999.7,N
1627146295.8,286046999.7,N
1627146315.7,286047000.1,N
1627146335.5,286047001.0,N
1627146355.3,286046998.5,N
1627146375.2,286046998.6,N
1627146395.0,286046998.5,N
1627146395.9,286046998.5,N
1627146415.8,286047000.7,N
1627146435.6,286046998.9,N
1627146455.4,286046998.5,N
1627146475.3,286047001.0,N
1627146495.1,286047000.6,N
1627146515.9,286046998.3,N
1627146535.7,286047000.7,N
1627146555.5,286046998.5,N
1627146575.4,286046998.5,N
1627146595.2,286047000.9,N
1627146615.0,286047000.6,N
1627146615.9,286047000.6,N
1627146635.8,286047000.6,N
1627146655.6,286047001.0,N
1627146675.5,286047000.7,N
1627146695.3,286046998.5,N
1627146715.1,286047000.4,N
1627146735.9,286047000.1,N
1627146755.7,286046999.7,N
1627146775.5,286046998.2,N
1627146795.4,286046998.7,N
1627146815.2,286046998.3,N
1627146835.1,286046998.6,N
1627146836.0,286046998.6,N
1627146855.8,286046999.3,N
1627146875.6,286046999.4,N
1627146895.5,286046998.3,N
1627146915.3,286046998.4,N
1627146935.1,286046996.5,Y
1627146955.9,286046999.1,P
1627146975.7,286047001.1,P
1627146995.6,286046999.1,N
1627147015.4,286046998.9,N
1627147035.2,286047001.2,N
1627147055.1,286046998.9,N
1627147056.0,286046998.9,N
1627147075.8,286046999.2,N
1627147095.6,286046996.9,Y
1627147115.5,286046997.1,P
1627147135.3,286046998.3,N
1627147155.2,286046998.3,N
1627147175.9,286047001.1,N
1627147195.7,286047000.9,N
1627147215.6,286047001.2,N
1627147235.4,286047001.2,N
1627147255.2,286046998.7,N
1627147275.1,286046998.4,N
1627147276.0,286046998.4,N
1627147295.8,286047000.3,N
1627147315.7,286047000.9,N
1627147335.5,286047000.9,N
1627147355.3,286047000.7,N
1627147375.2,286047000.4,N
1627147395.0,286047000.7,N
1627147395.9,286047000.7,N
1627147415.7,286047000.9,N
1627147435.6,286047001.0,N
1627147455.4,286047001.0,N
1627147475.3,286047000.7,N
1627147495.1,286046998.1,N
1627147515.8,286046999.9,N
1627147535.7,286047001.0,N
1627147555.5,286047001.0,N
1627147575.4,286047001.2,N
1627147595.2,286047000.2,N
1627147615.0,286047000.9,N
1627147615.9,286047000.9,N
1627147635.8,286047000.8,N
1627147655.6,286047001.0,N
1627147675.4,286046998.2,N
1627147695.3,286047001.1,N
1627147715.1,286047000.7,N
1627147735.9,286046998.5,N
1627147755.7,286047001.0,N
1627147775.5,286047000.2,N
1627147795.4,286047002.5,N
1627147815.2,286047003.9,Y
1627147835.0,286047003.8,P
1627147835.9,286047003.8,N
1627147855.8,286047006.0,P
1627147875.6,286047004.3,N
1627147895.5,286047002.2,N
1627147915.3,286047002.6,N
1627147935.1,286047002.6,N
1627147955.9,286047002.6,N
1627147975.7,286047002.3,N
1627147995.5,286047001.5,N
1627148015.4,286047002.0,N
1627148035.2,286047004.3,Y
1627148055.1,286047000.3,P
1627148056.0,286047000.3,N
1627148075.8,286046998.5,N
1627148095.6,286047001.1,N
1627148115.5,286047000.2,N
1627148135.3,286047002.4,N
1627148155.1,286047002.1,N
1627148175.9,286047002.0,N
1627148195.7,286047002.6,N
1627148215.6,286047000.0,N
1627148235.4,286047002.8,N
1627148255.2,286047002.8,N
1627148275.1,286047000.1,N
1627148276.0,286047000.1,N
1627148295.8,286047002.3,N
1627148315.7,286047002.5,N
1627148335.5,286047000.0,N
1627148355.3,286047000.5,N
1627148375.2,286046998.6,N
1627148395.0,286046999.0,N
1627148395.9,286046999.0,N
1627148415.7,286047001.0,N
1627148435.6,286046999.2,N
1627148455.4,286046998.3,N
1627148475.3,286047000.8,N
1627148495.1,286047000.3,N
1627148496.0,286047000.3,N
1627148515.8,286047001.0,N
1627148535.7,286046998.3,N
1627148555.5,286046998.1,N
1627148575.3,286046998.4,N
1627148595.2,286046999.6,N
1627148615.0,286046999.0,N
1627148615.9,286046999.0,N
1627148635.8,286046998.1,N
1627148655.6,286046998.6,N
1627148675.4,286046999.7,N
1627148695.3,286047000.7,N
1627148715.1,286046998.8,N
1627148735.8,286047000.3,N
1627148755.7,286046999.9,N
1627148775.5,286047000.0,N
1627148795.4,286047000.0,N
1627148815.2,286047000.8,N
1627148835.0,286047000.7,N
1627148835.9,286047000.7,N
1627148855.8,286047000.3,N
1627148875.6,286047002.6,N
1627148895.5,286047002.8,N
1627148915.3,286047002.5,N
1627148935.1,286047002.6,N
1627148955.9,286047002.0,N
1627148975.7,286047002.5,N
1627148995.5,286047001.5,N
1627149015.4,286047001.8,N
1627149035.2,286047001.7,N
1627149055.1,286047004.3,N
1627149056.0,286047004.3,N
1627149075.8,286047001.9,N
1627149095.6,286047001.6,N
1627149115.5,286047001.9,N
1627149135.3,286047001.5,N
1627149155.1,286047002.0,N
1627149175.9,286047001.5,N
1627149195.7,286047002.1,N
1627149215.6,286047001.7,N
1627149235.4,286047001.5,N
1627149255.2,286047002.7,N
1627149275.1,286047000.4,N
1627149276.0,286047000.4,N
1627149295.8,286047000.0,N
1627149315.6,286047002.7,N
1627149335.5,286047002.5,N
1627149355.3,286047001.5,N
1627149375.2,286047002.0,N
1627149395.9,286047002.6,N
1627149415.7,286047000.1,N
1627149435.6,286047002.3,N
1627149455.4,286047002.3,N
1627149475.2,286047002.7,N
1627149495.1,286047000.3,N
1627149496.0,286047000.3,N
1627149515.8,286047000.8,N
1627149535.7,286047000.9,N
1627149555.5,286047000.2,N
1627149575.3,286047000.9,N
1627149595.2,286047000.5,N
